FW5767 Weather Reports


Display with metric or nautical units.
time (UTC)temp
F
wind
direction
speed
MPH
gust
MPH
rain 1hr
in
rain 24hr
in
rain mn
in
humidity
%
barometer
mb
20200402201605 48 243 13.0 19.0 0.00 0.00 0.00 80 1010.0
20200402201106 48 250 12.0 19.0 0.00 0.00 0.00 81 1009.9
20200402200606 48 244 10.0 17.0 0.00 0.00 0.00 82 1009.9
20200402200106 47 244 9.0 16.0 0.00 0.00 0.00 83 1009.8
20200402195606 47 243 10.0 16.0 0.00 0.00 0.00 83 1009.9
20200402195103 47 234 11.0 19.0 0.00 0.00 0.00 83 1009.8
20200402194605 47 240 11.0 19.0 0.00 0.00 0.00 83 1009.6
20200402194104 47 257 12.0 18.0 0.00 0.00 0.00 83 1009.6
20200402193604 47 236 11.0 18.0 0.00 0.00 0.00 83 1009.6
20200402193105 47 250 10.0 18.0 0.00 0.00 0.00 83 1009.6
20200402192606 47 204 11.0 18.0 0.00 0.00 0.00 83 1009.6
20200402192104 47 230 11.0 17.0 0.00 0.00 0.00 83 1009.7
20200402191604 46 243 10.0 17.0 0.00 0.00 0.00 83 1009.7
20200402191104 46 241 11.0 17.0 0.00 0.00 0.00 83 1009.7
20200402190605 46 234 11.0 19.0 0.00 0.00 0.00 83 1009.7
20200402190105 46 249 11.0 19.0 0.00 0.00 0.00 82 1009.7
20200402185604 46 242 12.0 21.0 0.00 0.00 0.00 82 1009.7
20200402185104 46 225 12.0 21.0 0.00 0.00 0.00 82 1009.6
20200402184605 46 242 11.0 21.0 0.00 0.00 0.00 83 1009.6
20200402184105 46 231 11.0 21.0 0.00 0.00 0.00 83 1009.6
20200402183605 46 234 11.0 20.0 0.00 0.00 0.00 83 1009.6
20200402183104 46 238 12.0 20.0 0.00 0.00 0.00 83 1009.6
20200402182604 46 244 13.0 22.0 0.00 0.00 0.00 83 1009.7
20200402182104 46 233 14.0 22.0 0.00 0.00 0.00 83 1009.6
20200402181604 46 246 14.0 22.0 0.00 0.00 0.00 82 1009.6
20200402181104 47 234 14.0 22.0 0.00 0.00 0.00 82 1009.5
20200402180603 47 246 13.0 21.0 0.00 0.00 0.00 81 1009.6
20200402180104 47 239 13.0 23.0 0.00 0.00 0.00 81 1009.6
20200402175604 47 229 12.0 23.0 0.00 0.00 0.00 80 1009.6
20200402175104 47 245 13.0 24.0 0.00 0.00 0.00 80 1009.7
20200402174604 47 217 14.0 24.0 0.00 0.00 0.00 80 1009.7
20200402174104 47 238 13.0 21.0 0.00 0.00 0.00 80 1009.8
20200402173604 47 221 12.0 22.0 0.00 0.00 0.00 80 1009.7
20200402173103 47 219 12.0 22.0 0.00 0.00 0.00 80 1009.8
20200402172604 47 239 12.0 23.0 0.00 0.00 0.00 80 1009.9
20200402172104 47 230 14.0 22.0 0.00 0.00 0.00 80 1009.9
20200402171603 47 211 14.0 23.0 0.00 0.00 0.00 80 1009.8
20200402171102 47 236 13.0 22.0 0.00 0.00 0.00 80 1009.8
20200402170603 47 219 12.0 20.0 0.00 0.00 0.00 80 1009.9
20200402170102 47 227 13.0 25.0 0.00 0.00 0.00 80 1010.0
20200402165602 47 238 13.0 25.0 0.00 0.00 0.00 80 1009.9
20200402165101 47 266 14.0 25.0 0.00 0.00 0.00 79 1009.9
20200402164602 47 253 13.0 25.0 0.00 0.00 0.00 80 1010.0
20200402164101 47 231 12.0 19.0 0.00 0.00 0.00 80 1010.0
20200402163601 47 215 11.0 17.0 0.00 0.00 0.00 80 1010.1
20200402163101 47 244 12.0 20.0 0.00 0.00 0.00 80 1010.1
20200402162601 47 223 14.0 21.0 0.00 0.00 0.00 79 1009.9
20200402162059 47 234 14.0 21.0 0.00 0.00 0.00 79 1010.0
20200402161559 47 209 12.0 21.0 0.00 0.00 0.00 79 1010.1
20200402161059 47 240 12.0 19.0 0.00 0.00 0.00 79 1010.1
20200402160557 47 239 13.0 20.0 0.00 0.00 0.00 79 1010.1
20200402160055 48 250 13.0 24.0 0.00 0.00 0.00 78 1010.2
20200402155555 48 252 13.0 24.0 0.00 0.00 0.00 78 1010.2
20200402155057 48 229 13.0 22.0 0.00 0.00 0.00 78 1010.2
20200402154556 48 244 14.0 22.0 0.00 0.00 0.00 78 1010.2
20200402154057 48 231 14.0 22.0 0.00 0.00 0.00 78 1010.3
20200402153557 48 241 13.0 21.0 0.00 0.00 0.00 78 1010.2
20200402153055 48 238 12.0 21.0 0.00 0.00 0.00 78 1010.3
20200402152555 48 236 12.0 21.0 0.00 0.00 0.00 78 1010.4
20200402152052 48 238 13.0 21.0 0.00 0.00 0.00 77 1010.4
20200402151552 48 257 14.0 21.0 0.00 0.00 0.00 78 1010.4
20200402151052 48 219 13.0 22.0 0.00 0.00 0.00 78 1010.4
20200402150552 48 257 12.0 22.0 0.00 0.00 0.00 77 1010.4
20200402150052 49 234 13.0 21.0 0.00 0.00 0.00 77 1010.6
20200402145551 49 239 13.0 21.0 0.00 0.00 0.00 77 1010.7
20200402145050 49 259 14.0 23.0 0.00 0.00 0.00 77 1010.7
20200402144552 49 243 15.0 25.0 0.00 0.00 0.00 77 1010.6
20200402144050 49 262 15.0 26.0 0.00 0.00 0.00 77 1010.7
20200402143550 49 243 15.0 26.0 0.00 0.00 0.00 76 1010.8
20200402143048 50 242 15.0 25.0 0.00 0.00 0.00 76 1010.8
20200402142548 50 213 14.0 25.0 0.00 0.00 0.00 76 1010.8
20200402142048 51 228 13.0 23.0 0.00 0.00 0.00 75 1010.9
20200402141547 51 247 14.0 23.0 0.00 0.00 0.00 75 1010.8
20200402141046 50 227 14.0 23.0 0.00 0.00 0.00 75 1010.9
20200402140546 50 248 15.0 26.0 0.00 0.00 0.00 74 1011.0
20200402140047 50 213 15.0 26.0 0.00 0.00 0.00 75 1010.9
20200402135544 51 221 14.0 25.0 0.00 0.00 0.00 74 1011.0
20200402135045 51 244 14.0 25.0 0.00 0.00 0.00 74 1011.0
20200402134544 51 248 15.0 25.0 0.00 0.00 0.00 74 1011.0
20200402134045 50 257 15.0 25.0 0.00 0.00 0.00 73 1010.9
20200402133544 50 259 16.0 26.0 0.00 0.00 0.00 75 1011.0
20200402133044 50 238 17.0 26.0 0.00 0.00 0.00 75 1010.9
20200402132544 50 235 17.0 25.0 0.00 0.00 0.00 75 1010.9
20200402132046 49 238 16.0 25.0 0.00 0.00 0.00 75 1011.0
20200402131544 50 257 16.0 25.0 0.00 0.00 0.00 76 1011.1
20200402131044 49 249 16.0 25.0 0.00 0.00 0.00 76 1011.0
20200402130543 49 256 15.0 24.0 0.00 0.00 0.00 76 1011.1
20200402130043 49 246 14.0 24.0 0.00 0.00 0.00 76 1011.0
20200402125543 49 244 13.0 22.0 0.00 0.00 0.00 76 1011.1
20200402125042 48 215 14.0 22.0 0.00 0.00 0.00 76 1011.2
20200402124543 48 231 14.0 23.0 0.00 0.00 0.00 76 1011.3
20200402124045 48 232 13.0 23.0 0.00 0.00 0.00 75 1011.4
20200402123543 48 242 13.0 23.0 0.00 0.00 0.00 75 1011.5
20200402123042 48 234 14.0 23.0 0.00 0.00 0.00 75 1011.5
20200402122542 48 251 13.0 21.0 0.00 0.00 0.00 75 1011.6
20200402122042 48 238 13.0 23.0 0.00 0.00 0.00 76 1011.5
20200402121541 48 242 15.0 23.0 0.00 0.00 0.00 75 1011.6
20200402121040 48 219 15.0 22.0 0.00 0.00 0.00 75 1011.7
20200402120540 48 240 14.0 22.0 0.00 0.00 0.00 75 1011.7
20200402120042 48 228 14.0 24.0 0.00 0.00 0.00 75 1011.7
20200402115540 48 231 15.0 24.0 0.00 0.00 0.00 75 1011.8
20200402115040 48 256 15.0 24.0 0.00 0.00 0.00 75 1011.8
20200402114540 48 216 15.0 25.0 0.00 0.00 0.00 74 1011.8
20200402114040 48 246 14.0 25.0 0.00 0.00 0.00 74 1011.9
20200402113541 48 230 14.0 25.0 0.00 0.00 0.00 75 1012.0
20200402113040 48 211 15.0 25.0 0.00 0.00 0.00 75 1012.0
20200402112540 48 219 15.0 25.0 0.00 0.00 0.00 74 1012.0
20200402112040 48 255 16.0 26.0 0.00 0.00 0.00 74 1012.1
20200402111541 49 219 15.0 27.0 0.00 0.00 0.00 73 1012.2
20200402111040 49 275 15.0 24.0 0.00 0.00 0.00 73 1012.2
20200402110540 49 227 15.0 24.0 0.00 0.00 0.00 71 1012.3
20200402110040 49 262 15.0 25.0 0.00 0.00 0.00 69 1012.2
20200402105540 49 223 15.0 25.0 0.00 0.00 0.00 68 1012.2
20200402105040 50 256 14.0 25.0 0.00 0.00 0.00 66 1012.2
20200402104539 50 248 13.0 24.0 0.00 0.00 0.00 64 1012.3
20200402104040 51 217 13.0 22.0 0.00 0.00 0.00 66 1012.3
20200402103540 50 246 13.0 22.0 0.00 0.00 0.00 68 1012.3
20200402103040 50 230 13.0 21.0 0.00 0.00 0.00 68 1012.3
20200402102540 49 247 14.0 21.0 0.00 0.00 0.00 68 1012.4
20200402102040 49 236 14.0 21.0 0.00 0.00 0.00 69 1012.4
20200402101539 49 260 14.0 21.0 0.00 0.00 0.00 70 1012.5
20200402101040 49 242 13.0 21.0 0.00 0.00 0.00 69 1012.4
20200402100540 50 279 13.0 22.0 0.00 0.00 0.00 69 1012.4
20200402100042 49 257 14.0 22.0 0.00 0.00 0.00 68 1012.4
20200402095540 50 240 12.0 20.0 0.00 0.00 0.00 69 1012.5
20200402095039 49 229 12.0 20.0 0.00 0.00 0.00 70 1012.6
20200402094541 49 222 13.0 20.0 0.00 0.00 0.00 70 1012.6
20200402094040 49 259 13.0 22.0 0.00 0.00 0.00 69 1012.7
20200402093540 49 232 13.0 22.0 0.00 0.00 0.00 70 1012.7
20200402093039 49 238 11.0 20.0 0.00 0.00 0.00 71 1012.7
20200402092540 49 250 11.0 20.0 0.00 0.00 0.00 67 1012.7
20200402092040 49 229 12.0 20.0 0.00 0.00 0.00 68 1012.8
20200402091540 49 224 12.0 20.0 0.00 0.00 0.00 69 1012.8
20200402091040 49 272 13.0 25.0 0.00 0.00 0.00 67 1013.0
20200402090539 48 231 13.0 25.0 0.00 0.00 0.00 68 1012.8
20200402090040 48 231 13.0 26.0 0.00 0.00 0.00 67 1013.0
20200402085540 48 257 14.0 26.0 0.00 0.00 0.00 65 1012.8
20200402085040 49 254 14.0 21.0 0.00 0.00 0.00 66 1012.9
20200402084539 48 256 14.0 21.0 0.00 0.00 0.00 64 1013.0
20200402084040 48 250 13.0 21.0 0.00 0.00 0.00 67 1013.0
20200402083539 48 269 13.0 20.0 0.00 0.00 0.00 64 1012.9
20200402083039 48 269 11.0 17.0 0.00 0.00 0.00 68 1013.0
20200402082540 48 240 10.0 16.0 0.00 0.00 0.00 69 1012.9
20200402082041 48 240 9.0 18.0 0.00 0.00 0.00 70 1012.9
20200402081538 48 238 9.0 18.0 0.00 0.00 0.00 71 1012.9
20200402081038 48 242 10.0 18.0 0.00 0.00 0.00 72 1012.9
20200402080538 48 254 11.0 18.0 0.00 0.00 0.00 71 1013.0
20200402080038 48 244 10.0 17.0 0.00 0.00 0.00 72 1013.0
20200402075537 48 242 9.0 15.0 0.00 0.00 0.00 72 1013.1
20200402075038 48 239 9.0 15.0 0.00 0.00 0.00 73 1013.1
20200402074538 47 227 8.0 14.0 0.00 0.00 0.00 73 1013.1
20200402074040 47 228 9.0 16.0 0.00 0.00 0.00 74 1013.2
20200402073538 47 215 10.0 16.0 0.00 0.00 0.00 74 1013.2
20200402073040 47 219 10.0 16.0 0.00 0.00 0.00 74 1013.2
20200402072539 47 234 9.0 16.0 0.00 0.00 0.00 75 1013.2
20200402072039 47 211 8.0 15.0 0.00 0.00 0.00 76 1013.2
20200402071539 46 230 8.0 15.0 0.00 0.00 0.00 77 1013.3
20200402071039 46 255 7.0 13.0 0.00 0.00 0.00 78 1013.2
20200402070540 46 248 8.0 13.0 0.00 0.00 0.00 79 1013.3
20200402070039 46 218 8.0 13.0 0.00 0.00 0.00 79 1013.3
20200402065540 45 214 7.0 12.0 0.00 0.00 0.00 80 1013.5
20200402065039 45 220 6.0 10.0 0.00 0.00 0.00 81 1013.5
20200402064539 44 217 6.0 10.0 0.00 0.00 0.00 81 1013.6
20200402064039 44 213 5.0 10.0 0.00 0.00 0.00 81 1013.7
20200402063538 44 205 5.0 9.0 0.00 0.00 0.00 82 1013.7
20200402063038 44 227 4.0 9.0 0.00 0.00 0.00 82 1013.7
20200402062538 43 230 5.0 7.0 0.00 0.00 0.00 82 1013.7
20200402062038 43 198 5.0 9.0 0.00 0.00 0.00 81 1013.7
20200402061538 43 210 5.0 9.0 0.00 0.00 0.00 81 1013.7
20200402061038 43 228 5.0 9.0 0.00 0.00 0.00 81 1013.7
20200402060538 42 190 6.0 9.0 0.00 0.00 0.00 81 1013.7
20200402060037 42 208 6.0 8.0 0.00 0.00 0.00 81 1013.7
20200402055538 42 218 6.0 8.0 0.00 0.00 0.00 80 1013.6
20200402055038 42 220 6.0 10.0 0.00 0.00 0.00 80 1013.7
20200402054538 42 207 6.0 10.0 0.00 0.00 0.00 80 1013.7
20200402054037 42 207 6.0 9.0 0.00 0.00 0.00 80 1013.6
20200402053538 42 227 5.0 9.0 0.00 0.00 0.00 80 1013.7
20200402053039 42 210 5.0 7.0 0.00 0.00 0.00 80 1013.7
20200402052535 41 234 5.0 7.0 0.00 0.00 0.00 79 1013.8
20200402052036 41 221 4.0 7.0 0.00 0.00 0.00 79 1013.9
20200402051536 41 206 4.0 7.0 0.00 0.00 0.00 79 1013.9
20200402051035 41 203 4.0 7.0 0.00 0.00 0.00 80 1014.0
20200402050536 41 219 4.0 7.0 0.00 0.00 0.00 80 1014.1
20200402050036 41 212 3.0 6.0 0.00 0.00 0.00 80 1014.1
20200402045536 41 209 3.0 7.0 0.00 0.00 0.00 80 1014.1
20200402045036 41 209 4.0 7.0 0.00 0.00 0.00 80 1014.2
20200402044536 41 200 4.0 7.0 0.00 0.00 0.00 81 1014.2
20200402044037 41 206 3.0 6.0 0.00 0.00 0.00 81 1014.2
20200402043535 41 192 3.0 7.0 0.00 0.00 0.00 81 1014.3
20200402043036 41 217 3.0 6.0 0.00 0.00 0.00 82 1014.3
20200402042534 40 210 3.0 7.0 0.00 0.00 0.00 82 1014.3
20200402042034 40 196 4.0 7.0 0.00 0.00 0.00 83 1014.4
20200402041534 40 196 3.0 7.0 0.00 0.00 0.00 83 1014.4
20200402041034 40 212 3.0 5.0 0.00 0.00 0.00 84 1014.4
20200402040533 40 210 3.0 5.0 0.00 0.00 0.00 84 1014.4
20200402040033 40 218 3.0 6.0 0.00 0.00 0.00 84 1014.5
20200402035534 40 201 3.0 6.0 0.00 0.00 0.00 84 1014.6
20200402035032 40 198 3.0 4.0 0.00 0.00 0.00 84 1014.6
20200402034532 39 214 3.0 4.0 0.00 0.00 0.00 84 1014.6
20200402034031 39 214 3.0 4.0 0.00 0.00 0.00 84 1014.6
20200402033532 39 214 2.0 4.0 0.00 0.00 0.00 84 1014.7
20200402033030 39 214 3.0 4.0 0.00 0.00 0.00 84 1014.6
20200402032529 39 214 3.0 5.0 0.00 0.00 0.00 83 1014.7
20200402032030 39 208 4.0 6.0 0.00 0.00 0.00 83 1014.7
20200402031529 39 198 4.0 6.0 0.00 0.00 0.00 83 1014.7
20200402031029 39 208 3.0 6.0 0.00 0.00 0.00 83 1014.9
20200402030527 39 205 3.0 6.0 0.00 0.00 0.00 83 1014.9
20200402030028 39 199 3.0 6.0 0.00 0.00 0.00 83 1014.9
20200402025527 39 196 4.0 6.0 0.00 0.00 0.00 83 1015.0
20200402025028 39 213 4.0 6.0 0.00 0.00 0.00 83 1014.9
20200402024525 39 207 3.0 6.0 0.00 0.00 0.00 83 1015.1
20200402024025 39 204 2.0 5.0 0.00 0.00 0.00 84 1015.2
20200402023526 39 202 2.0 5.0 0.00 0.00 0.00 84 1015.1
20200402023025 39 202 3.0 5.0 0.00 0.00 0.00 84 1015.2
20200402022525 39 194 3.0 5.0 0.00 0.00 0.00 84 1015.3
20200402022025 39 198 3.0 5.0 0.00 0.00 0.00 84 1015.4
20200402021523 39 201 2.0 5.0 0.00 0.00 0.00 84 1015.4
20200402021023 39 206 2.0 4.0 0.00 0.00 0.00 85 1015.4
20200402020523 39 200 2.0 4.0 0.00 0.00 0.00 85 1015.4
20200402020024 39 202 2.0 4.0 0.00 0.00 0.00 85 1015.5
20200402015526 39 202 2.0 4.0 0.00 0.00 0.00 85 1015.5
20200402015023 39 199 2.0 3.0 0.00 0.00 0.00 85 1015.5
20200402014523 39 199 2.0 3.0 0.00 0.00 0.00 85 1015.5
20200402014021 39 199 2.0 3.0 0.00 0.00 0.00 85 1015.5
20200402013521 39 199 2.0 3.0 0.00 0.00 0.00 85 1015.6
20200402013021 39 199 1.0 4.0 0.00 0.00 0.00 84 1015.6
20200402012521 39 199 2.0 3.0 0.00 0.00 0.00 84 1015.9
20200402012021 39 199 3.0 4.0 0.00 0.00 0.00 85 1015.9
20200402011521 39 199 3.0 4.0 0.00 0.00 0.00 85 1016.1
20200402011021 39 198 2.0 5.0 0.00 0.00 0.00 84 1016.2
20200402010524 39 197 2.0 5.0 0.00 0.00 0.00 84 1016.2
20200402010021 39 205 2.0 5.0 0.00 0.00 0.00 84 1016.2
20200402005521 39 207 2.0 5.0 0.00 0.00 0.00 84 1016.2
20200402005020 39 193 3.0 4.0 0.00 0.00 0.00 84 1016.2
20200402004519 39 204 3.0 4.0 0.00 0.00 0.00 84 1016.2
20200402004019 39 200 2.0 4.0 0.00 0.00 0.00 84 1016.2
20200402003519 39 194 1.0 4.0 0.00 0.00 0.00 84 1016.3
20200402003019 39 193 1.0 4.0 0.00 0.00 0.00 84 1016.3
20200402002521 39 184 2.0 4.0 0.00 0.00 0.00 84 1016.3
20200402002019 39 184 2.0 5.0 0.00 0.00 0.00 84 1016.3
20200402001519 39 165 1.0 5.0 0.00 0.00 0.00 84 1016.4
20200402001018 39 164 2.0 5.0 0.00 0.00 0.00 84 1016.4
20200402000517 39 164 2.0 5.0 0.00 0.00 0.00 84 1016.4
20200402000017 39 164 2.0 5.0 0.00 0.00 0.00 84 1016.4
20200401235517 39 186 2.0 4.0 0.00 0.00 0.00 83 1016.5
20200401235018 39 192 2.0 4.0 0.00 0.00 0.00 83 1016.6
20200401234517 39 194 2.0 4.0 0.00 0.00 0.00 83 1016.6
20200401234017 39 204 2.0 4.0 0.00 0.00 0.00 83 1016.7
20200401233518 39 209 2.0 3.0 0.00 0.00 0.00 82 1016.8
20200401233020 39 209 2.0 3.0 0.00 0.00 0.00 82 1016.7
20200401232517 39 209 2.0 3.0 0.00 0.00 0.00 82 1016.8
20200401232015 39 209 2.0 4.0 0.00 0.00 0.00 82 1016.8
20200401231515 39 210 2.0 4.0 0.00 0.00 0.00 82 1016.8
20200401231015 39 188 2.0 5.0 0.00 0.00 0.00 81 1016.8
20200401230515 39 195 2.0 5.0 0.00 0.00 0.00 81 1016.9
20200401230015 39 196 2.0 5.0 0.00 0.00 0.00 81 1016.9
20200401225515 40 188 2.0 5.0 0.00 0.00 0.00 80 1016.9
20200401225016 40 182 1.0 5.0 0.00 0.00 0.00 80 1017.0
20200401224515 40 189 1.0 3.0 0.00 0.00 0.00 80 1017.0
20200401224013 40 189 1.0 4.0 0.00 0.00 0.00 80 1017.1
20200401223513 40 189 1.0 4.0 0.00 0.00 0.00 80 1017.1
20200401223015 40 189 1.0 3.0 0.00 0.00 0.00 79 1017.2
20200401222511 40 189 2.0 4.0 0.00 0.00 0.00 79 1017.2
20200401222011 40 189 2.0 4.0 0.00 0.00 0.00 79 1017.3
20200401221511 40 197 2.0 4.0 0.00 0.00 0.00 79 1017.3
20200401221014 40 193 2.0 3.0 0.00 0.00 0.00 79 1017.4
20200401220511 40 194 2.0 3.0 0.00 0.00 0.00 78 1017.5
20200401220013 40 194 2.0 4.0 0.00 0.00 0.00 78 1017.5
20200401215511 40 194 1.0 3.0 0.00 0.00 0.00 78 1017.4
20200401215011 40 194 1.0 4.0 0.00 0.00 0.00 78 1017.4
20200401214511 40 200 1.0 4.0 0.00 0.00 0.00 78 1017.5
20200401214011 40 201 1.0 5.0 0.00 0.00 0.00 78 1017.5
20200401213511 40 204 1.0 5.0 0.00 0.00 0.00 78 1017.5
20200401213009 40 204 2.0 5.0 0.00 0.00 0.00 78 1017.6
20200401212511 40 207 2.0 5.0 0.00 0.00 0.00 79 1017.7
20200401212009 40 181 2.0 4.0 0.00 0.00 0.00 79 1017.7
20200401211512 40 189 1.0 4.0 0.00 0.00 0.00 79 1017.7
20200401211009 41 188 1.0 3.0 0.00 0.00 0.00 79 1017.7
20200401210509 41 201 2.0 4.0 0.00 0.00 0.00 79 1017.7
20200401210009 41 190 2.0 4.0 0.00 0.00 0.00 79 1017.7
20200401205509 41 190 2.0 4.0 0.00 0.00 0.00 79 1017.7
20200401205009 41 189 1.0 4.0 0.00 0.00 0.00 79 1017.8
20200401204510 41 180 2.0 5.0 0.00 0.00 0.00 79 1017.8
20200401204007 41 190 2.0 5.0 0.00 0.00 0.00 79 1017.9
20200401203508 41 205 2.0 4.0 0.00 0.00 0.00 79 1018.0
20200401203008 41 211 1.0 4.0 0.00 0.00 0.00 79 1018.0
20200401202507 41 188 1.0 3.0 0.00 0.00 0.00 78 1018.0
20200401202007 41 195 1.0 3.0 0.00 0.00 0.00 78 1017.9